Location: Fort Wayne
(41.1310°N, 85.1290°W)
Time: 10:58:10
(UTC-04:00)

OPAL - Visible Passes

Search period start: 31 October 2014 00:00
Search period end: 09 November 2014 23:00
Orbit: 744 x 797 km, 100.2° (Epoch: 31 October)

Date Brightness Start Highest point End Pass type
(mag) Time Alt. Az. Time Alt. Az. Time Alt. Az.
31 Oct 10.6 04:21:12 10° NE 04:21:17 10° NE 04:21:21 10° NE visible
31 Oct 7.6 05:54:12 10° SSE 05:59:17 75° ENE 06:04:21 10° NNW visible
31 Oct 9.2 07:36:27 10° WSW 07:38:40 13° W 07:40:52 10° WNW visible
31 Oct 8.4 19:43:03 10° N 19:47:50 50° WNW 19:52:35 10° SW visible
01 Nov 8.9 05:19:37 10° SE 05:24:12 35° ENE 05:28:45 10° N visible
01 Nov 8.3 06:58:44 10° SSW 07:03:05 28° W 07:07:26 10° NW visible
01 Nov 7.4 19:07:41 10° NNE 19:12:39 74° ESE 19:17:35 10° S visible
01 Nov 10.3 20:48:22 10° NNW 20:50:55 14° WNW 20:53:28 10° W visible
02 Nov 10.0 03:46:03 10° E 03:49:18 17° ENE 03:52:32 10° NNE visible
02 Nov 7.4 05:22:39 10° S 05:27:42 62° WSW 05:32:43 10° NNW visible
02 Nov 9.4 19:11:51 10° N 19:16:04 29° WNW 19:20:16 10° WSW visible
03 Nov 7.9 04:47:28 10° SSE 04:52:29 61° ENE 04:57:25 10° N visible
03 Nov 9.0 06:28:43 10° SW 06:31:44 16° W 06:34:45 10° WNW visible
03 Nov 8.0 18:36:08 10° N 18:41:01 62° WNW 18:45:53 10° SSW visible
04 Nov 9.3 04:13:07 10° ESE 04:17:27 29° ENE 04:21:11 13° N visible
04 Nov 8.1 05:51:36 10° SSW 05:56:12 34° W 06:00:47 10° NW visible
04 Nov 7.5 18:00:53 10° NNE 18:05:47 60° ESE 18:10:40 10° S visible
04 Nov 10.1 19:41:03 10° NNW 19:44:11 17° WNW 19:47:19 10° W visible
05 Nov 10.2 03:39:57 10° E 03:42:35 14° ENE 03:45:02 11° NNE visible
05 Nov 7.3 05:15:47 10° SSE 05:20:51 76° WSW 05:25:19 13° NNW visible
05 Nov 9.0 19:04:49 10° N 19:09:17 35° WNW 19:13:44 10° SW visible
06 Nov 8.3 04:40:48 10° SE 04:45:41 50° ENE 04:49:15 18° N visible
06 Nov 8.8 06:21:14 10° SW 06:24:48 19° W 06:28:22 10° NW visible
06 Nov 7.6 18:29:14 10° NNE 18:34:11 76° WNW 18:39:08 10° SSW visible
07 Nov 9.5 04:06:41 10° ESE 04:10:41 24° ENE 04:13:14 16° NNE visible
07 Nov 7.8 05:44:32 10° S 05:49:19 42° W 05:53:31 13° NNW visible
07 Nov 7.7 17:54:06 10° NNE 17:58:54 49° ESE 18:03:42 10° S visible
07 Nov 9.9 19:33:51 10° NNW 19:37:27 21° WNW 19:41:02 10° WSW visible
08 Nov 10.4 03:34:06 10° ENE 03:35:53 12° ENE 03:37:14 11° NE visible
08 Nov 7.4 05:08:57 10° SSE 05:14:01 89° ENE 05:17:32 20° NNW visible
08 Nov 8.7 18:57:50 10° N 19:02:29 42° WNW 19:07:08 10° SW visible
09 Nov 8.6 04:34:11 10° SE 04:38:53 41° ENE 04:41:34 23° NNE visible
09 Nov 8.6 06:13:53 10° SSW 06:17:53 23° W 06:21:51 10° NW visible
09 Nov 7.4 18:22:21 10° NNE 18:27:20 88° ESE 18:32:19 10° SSW visible
09 Nov 10.3 20:03:40 10° NW 20:05:30 12° WNW 20:07:20 10° WNW visible
